EWG2Q EPWA-EDDL

Flight info

Callsign EWG2Q
Flight time 1h 29m
Altitude 38000
Route LOLSI DCT DIBLO DCT INDIG DCT GOVEN DCT MAG DCT TOLGI DCT APEBE L602 HMM T851 HALME HALME1A
Aircraft A20N/M-SDE2E3FGHIRWXY/LB1

Departure

Time 2026-05-03 21:38
Airport Warsaw Chopin Airport (EPWA)

Arrival

Time 2026-05-03 23:08
Airport Düsseldorf Airport (EDDL)
Time Latitude Longitude Altitude Speed Heading
2026-05-03 21:23 52.17046 20.97097 365 ft 0 kts 71°
2026-05-03 21:29 52.17041 20.97077 365 ft 1 kts 71°
2026-05-03 21:29 52.17038 20.97061 365 ft 2 kts 64°
2026-05-03 21:29 52.17030 20.97041 365 ft 2 kts 49°
2026-05-03 21:30 52.17019 20.97025 365 ft 2 kts 35°
2026-05-03 21:30 52.17006 20.97013 365 ft 2 kts 21°
2026-05-03 21:30 52.16992 20.97007 365 ft 2 kts
2026-05-03 21:30 52.16977 20.97007 365 ft 2 kts 352°
2026-05-03 21:31 52.16962 20.97012 365 ft 2 kts 338°
2026-05-03 21:31 52.16955 20.97018 365 ft 1 kts 330°
2026-05-03 21:31 52.16954 20.97018 365 ft 0 kts 330°
2026-05-03 21:33 52.16956 20.97017 365 ft 0 kts 331°
2026-05-03 21:33 52.16979 20.96998 365 ft 7 kts 332°
2026-05-03 21:33 52.17033 20.96951 365 ft 10 kts 329°
2026-05-03 21:34 52.17107 20.96884 365 ft 14 kts 328°
2026-05-03 21:34 52.17196 20.96807 365 ft 14 kts 331°
2026-05-03 21:34 52.17282 20.96732 365 ft 13 kts 329°
2026-05-03 21:34 52.17366 20.96660 365 ft 13 kts 329°
2026-05-03 21:35 52.17448 20.96586 365 ft 13 kts 322°
2026-05-03 21:35 52.17452 20.96455 365 ft 12 kts 240°
2026-05-03 21:35 52.17469 20.96332 365 ft 12 kts 321°
2026-05-03 21:35 52.17545 20.96266 365 ft 12 kts 330°
2026-05-03 21:36 52.17628 20.96195 365 ft 15 kts 330°
2026-05-03 21:36 52.17732 20.96106 365 ft 17 kts 329°
2026-05-03 21:36 52.17820 20.95981 365 ft 16 kts 303°
2026-05-03 21:36 52.17881 20.95829 365 ft 15 kts 299°
2026-05-03 21:37 52.17875 20.95672 365 ft 14 kts 231°
2026-05-03 21:37 52.17801 20.95644 365 ft 11 kts 154°
2026-05-03 21:37 52.17686 20.95744 365 ft 42 kts 152°
2026-05-03 21:37 52.17218 20.96152 366 ft 108 kts 152°
2026-05-03 21:38 52.16379 20.96880 369 ft 161 kts 150°
2026-05-03 21:38 52.15335 20.97803 767 ft 173 kts 151°
2026-05-03 21:38 52.14291 20.98756 1400 ft 176 kts 154°
2026-05-03 21:38 52.13202 20.99726 2041 ft 180 kts 156°
2026-05-03 21:39 52.12043 21.00568 2549 ft 189 kts 171°
2026-05-03 21:39 52.10740 21.00340 2883 ft 203 kts 209°
2026-05-03 21:39 52.09488 20.99015 3250 ft 225 kts 217°
2026-05-03 21:39 52.08180 20.97494 3774 ft 242 kts 217°
2026-05-03 21:40 52.06768 20.95889 4356 ft 256 kts 216°
2026-05-03 21:40 52.05258 20.94190 5055 ft 266 kts 216°
2026-05-03 21:40 52.03962 20.92151 5950 ft 265 kts 240°
2026-05-03 21:40 52.03461 20.89348 6825 ft 267 kts 265°
2026-05-03 21:41 52.03412 20.86315 7603 ft 272 kts 268°
2026-05-03 21:41 52.03399 20.83229 8335 ft 279 kts 268°
2026-05-03 21:41 52.03357 20.80110 9183 ft 280 kts 266°
2026-05-03 21:41 52.03283 20.76971 10059 ft 279 kts 266°
2026-05-03 21:42 52.03195 20.73816 10690 ft 288 kts 266°
2026-05-03 21:42 52.03142 20.70441 11061 ft 305 kts 269°
2026-05-03 21:42 52.03144 20.66976 11616 ft 315 kts 269°
2026-05-03 21:42 52.03153 20.63435 12382 ft 317 kts 269°
2026-05-03 21:43 52.03159 20.59878 13133 ft 319 kts 269°
2026-05-03 21:43 52.03162 20.56255 13857 ft 322 kts 269°
2026-05-03 21:43 52.03162 20.52656 14553 ft 325 kts 269°
2026-05-03 21:43 52.03158 20.48972 15253 ft 327 kts 270°
2026-05-03 21:44 52.03150 20.45302 15943 ft 330 kts 270°
2026-05-03 21:44 52.03139 20.41569 16620 ft 332 kts 270°
2026-05-03 21:44 52.03125 20.37852 17270 ft 335 kts 270°
2026-05-03 21:44 52.03109 20.34084 17905 ft 338 kts 269°
2026-05-03 21:45 52.03092 20.30320 18512 ft 340 kts 269°
2026-05-03 21:45 52.03072 20.26489 19087 ft 344 kts 269°
2026-05-03 21:45 52.03050 20.22594 19649 ft 348 kts 270°
2026-05-03 21:45 52.03028 20.18678 20186 ft 352 kts 270°
2026-05-03 21:46 52.03004 20.14681 20724 ft 356 kts 270°
2026-05-03 21:46 52.02978 20.10687 21247 ft 359 kts 270°
2026-05-03 21:46 52.02947 20.06584 21764 ft 363 kts 270°
2026-05-03 21:46 52.02914 20.02483 22264 ft 367 kts 270°
2026-05-03 21:47 52.02879 19.98303 22746 ft 371 kts 270°
2026-05-03 21:47 52.02844 19.94105 23221 ft 375 kts 270°
2026-05-03 21:47 52.02810 19.89901 23678 ft 379 kts 270°
2026-05-03 21:47 52.02777 19.85632 24128 ft 382 kts 270°
2026-05-03 21:48 52.02742 19.81286 24591 ft 385 kts 270°
2026-05-03 21:48 52.02705 19.76956 25040 ft 388 kts 270°
2026-05-03 21:48 52.02666 19.72587 25479 ft 391 kts 270°
2026-05-03 21:48 52.02623 19.68170 25916 ft 394 kts 270°
2026-05-03 21:49 52.02576 19.63730 26327 ft 396 kts 270°
2026-05-03 21:49 52.02528 19.59256 26722 ft 399 kts 270°
2026-05-03 21:49 52.02477 19.54781 27101 ft 402 kts 270°
2026-05-03 21:49 52.02424 19.50237 27479 ft 404 kts 270°
2026-05-03 21:50 52.02369 19.45678 27860 ft 407 kts 270°
2026-05-03 21:50 52.02313 19.41143 28210 ft 409 kts 270°
2026-05-03 21:50 52.02255 19.36474 28566 ft 412 kts 270°
2026-05-03 21:50 52.02195 19.31854 28915 ft 414 kts 270°
2026-05-03 21:51 52.02130 19.27177 29256 ft 416 kts 270°
2026-05-03 21:51 52.02064 19.22461 29570 ft 419 kts 270°
2026-05-03 21:51 52.01995 19.17767 29886 ft 422 kts 270°
2026-05-03 21:51 52.01922 19.12986 30215 ft 424 kts 270°
2026-05-03 21:52 52.01850 19.08252 30527 ft 426 kts 270°
2026-05-03 21:52 52.01776 19.03418 30836 ft 428 kts 270°
2026-05-03 21:52 52.01704 18.98640 31129 ft 430 kts 270°
2026-05-03 21:52 52.01629 18.93768 31422 ft 431 kts 270°
2026-05-03 21:53 52.01552 18.88968 31700 ft 433 kts 270°
2026-05-03 21:53 52.01468 18.84061 31981 ft 435 kts 270°
2026-05-03 21:53 52.01383 18.79225 32341 ft 434 kts 270°
2026-05-03 21:53 52.01292 18.74377 32749 ft 431 kts 270°
2026-05-03 21:54 52.01199 18.69526 33136 ft 430 kts 270°
2026-05-03 21:54 52.01106 18.64710 33453 ft 429 kts 270°
2026-05-03 21:54 52.01012 18.59890 33716 ft 430 kts 270°
2026-05-03 21:54 52.00917 18.55046 34036 ft 428 kts 270°
2026-05-03 21:55 52.00824 18.50277 34371 ft 427 kts 270°
2026-05-03 21:55 52.00728 18.45499 34680 ft 425 kts 270°
2026-05-03 21:55 52.00628 18.40693 34914 ft 425 kts 270°
2026-05-03 21:55 52.00525 18.35937 35159 ft 424 kts 270°
2026-05-03 21:56 52.00418 18.31160 35403 ft 423 kts 269°
2026-05-03 21:56 52.00309 18.26399 35634 ft 422 kts 269°
2026-05-03 21:56 52.00201 18.21704 35843 ft 422 kts 269°
2026-05-03 21:56 52.00092 18.16970 36051 ft 421 kts 269°
2026-05-03 21:57 51.99983 18.12213 36259 ft 420 kts 269°
2026-05-03 21:57 51.99873 18.07520 36461 ft 420 kts 269°
2026-05-03 21:57 51.99766 18.02804 36628 ft 420 kts 270°
2026-05-03 21:57 51.99778 17.98055 36799 ft 419 kts 273°
2026-05-03 21:58 51.99913 17.93387 37040 ft 418 kts 274°
2026-05-03 21:58 52.00063 17.88722 37294 ft 417 kts 274°
2026-05-03 21:58 52.00211 17.84064 37526 ft 416 kts 274°
2026-05-03 21:58 52.00356 17.79362 37698 ft 416 kts 274°
2026-05-03 21:59 52.00500 17.74673 37892 ft 415 kts 274°
2026-05-03 21:59 52.00640 17.70062 37976 ft 416 kts 274°
2026-05-03 21:59 52.00925 17.60684 37982 ft 416 kts 273°
2026-05-03 22:00 52.01203 17.51393 37985 ft 415 kts 274°
2026-05-03 22:00 52.01473 17.42068 37986 ft 415 kts 273°
2026-05-03 22:01 52.01727 17.32703 37985 ft 415 kts 272°
2026-05-03 22:01 52.01964 17.23435 37985 ft 414 kts 272°
2026-05-03 22:02 52.02196 17.14152 37986 ft 415 kts 272°
2026-05-03 22:02 52.02430 17.04822 37984 ft 414 kts 272°
2026-05-03 22:03 52.02663 16.95524 37975 ft 414 kts 272°
2026-05-03 22:03 52.02891 16.86251 37972 ft 414 kts 272°
2026-05-03 22:04 52.03108 16.76917 37961 ft 413 kts 272°
2026-05-03 22:04 52.03306 16.67621 37969 ft 413 kts 272°
2026-05-03 22:05 52.03495 16.58348 37966 ft 413 kts 272°
2026-05-03 22:05 52.03678 16.49090 37967 ft 413 kts 272°
2026-05-03 22:06 52.03860 16.39760 37966 ft 413 kts 272°
2026-05-03 22:06 52.04040 16.30480 37963 ft 413 kts 271°
2026-05-03 22:07 52.04214 16.21182 37960 ft 413 kts 271°
2026-05-03 22:07 52.04373 16.11884 37966 ft 413 kts 271°
2026-05-03 22:08 52.04518 16.02568 37959 ft 414 kts 271°
2026-05-03 22:08 52.04655 15.93290 37957 ft 414 kts 271°
2026-05-03 22:09 52.04791 15.83941 37957 ft 414 kts 271°
2026-05-03 22:10 52.04991 15.70063 37953 ft 413 kts 271°
2026-05-03 22:10 52.05120 15.60732 37950 ft 412 kts 271°
2026-05-03 22:11 52.05235 15.51486 37950 ft 412 kts 270°
2026-05-03 22:11 52.05336 15.42198 37949 ft 412 kts 270°
2026-05-03 22:12 52.05425 15.32957 37945 ft 412 kts 270°
2026-05-03 22:12 52.05511 15.23699 37942 ft 413 kts 269°
2026-05-03 22:13 52.05595 15.14406 37937 ft 412 kts 269°
2026-05-03 22:13 52.05674 15.05109 37939 ft 412 kts 269°
2026-05-03 22:14 52.05741 14.95880 37945 ft 412 kts 269°
2026-05-03 22:14 52.05794 14.86561 37948 ft 412 kts 269°
2026-05-03 22:15 52.05837 14.77358 37945 ft 412 kts 269°
2026-05-03 22:15 52.05804 14.68092 37943 ft 411 kts 268°
2026-05-03 22:16 52.05707 14.58825 37944 ft 410 kts 268°
2026-05-03 22:16 52.05606 14.49598 37943 ft 410 kts 268°
2026-05-03 22:17 52.05501 14.40386 37945 ft 410 kts 268°
2026-05-03 22:17 52.05393 14.31220 37939 ft 410 kts 267°
2026-05-03 22:18 52.05273 14.21968 37939 ft 409 kts 267°
2026-05-03 22:18 52.05147 14.12817 37939 ft 408 kts 266°
2026-05-03 22:19 52.05012 14.03631 37943 ft 408 kts 267°
2026-05-03 22:19 52.04870 13.94518 37941 ft 407 kts 266°
2026-05-03 22:20 52.04722 13.85330 37948 ft 407 kts 266°
2026-05-03 22:20 52.04566 13.76225 37951 ft 407 kts 266°
2026-05-03 22:21 52.04402 13.67029 37959 ft 407 kts 266°
2026-05-03 22:21 52.04239 13.57872 37954 ft 406 kts 266°
2026-05-03 22:22 52.04069 13.48749 37942 ft 406 kts 266°
2026-05-03 22:22 52.03886 13.39613 37933 ft 405 kts 266°
2026-05-03 22:23 52.03693 13.30497 37928 ft 405 kts 265°
2026-05-03 22:23 52.03497 13.21456 37926 ft 405 kts 265°
2026-05-03 22:24 52.03292 13.12343 37926 ft 405 kts 265°
2026-05-03 22:24 52.03082 13.03209 37924 ft 405 kts 265°
2026-05-03 22:25 52.02870 12.94164 37918 ft 405 kts 265°
2026-05-03 22:25 52.02644 12.85007 37921 ft 406 kts 265°
2026-05-03 22:26 52.02413 12.75931 37927 ft 405 kts 265°
2026-05-03 22:26 52.02171 12.66816 37927 ft 404 kts 265°
2026-05-03 22:27 52.01921 12.57749 37929 ft 404 kts 265°
2026-05-03 22:27 52.01669 12.48657 37919 ft 405 kts 265°
2026-05-03 22:28 52.01413 12.39565 37918 ft 405 kts 265°
2026-05-03 22:28 52.01152 12.30511 37915 ft 405 kts 264°
2026-05-03 22:29 52.00881 12.21421 37923 ft 405 kts 264°
2026-05-03 22:29 52.00599 12.12346 37937 ft 404 kts 264°
2026-05-03 22:30 52.00306 12.03256 37929 ft 403 kts 264°
2026-05-03 22:30 52.00008 11.94222 37933 ft 403 kts 264°
2026-05-03 22:31 51.99707 11.85171 37939 ft 404 kts 264°
2026-05-03 22:31 51.99310 11.76074 37943 ft 404 kts 262°
2026-05-03 22:32 51.98747 11.67081 37942 ft 404 kts 262°
2026-05-03 22:32 51.98164 11.58038 37942 ft 404 kts 262°
2026-05-03 22:33 51.97569 11.49005 37938 ft 403 kts 261°
2026-05-03 22:33 51.96973 11.40043 37941 ft 403 kts 261°
2026-05-03 22:34 51.96367 11.31014 37943 ft 403 kts 261°
2026-05-03 22:34 51.95757 11.21986 37940 ft 404 kts 261°
2026-05-03 22:35 51.95138 11.12960 37941 ft 405 kts 261°
2026-05-03 22:35 51.94510 11.03934 37939 ft 405 kts 261°
2026-05-03 22:36 51.93872 10.94915 37941 ft 404 kts 261°
2026-05-03 22:36 51.93231 10.85907 37941 ft 403 kts 261°
2026-05-03 22:37 51.92588 10.76960 37942 ft 404 kts 261°
2026-05-03 22:37 51.91943 10.68047 37929 ft 403 kts 261°
2026-05-03 22:38 51.91273 10.58971 37939 ft 404 kts 260°
2026-05-03 22:38 51.90602 10.49936 37942 ft 403 kts 260°
2026-05-03 22:39 51.89930 10.40992 37945 ft 404 kts 260°
2026-05-03 22:39 51.89214 10.31924 37940 ft 404 kts 259°
2026-05-03 22:40 51.88508 10.22938 37932 ft 404 kts 259°
2026-05-03 22:40 51.87812 10.13955 37940 ft 403 kts 259°
2026-05-03 22:41 51.87117 10.05001 37937 ft 403 kts 259°
2026-05-03 22:41 51.86406 9.95985 37939 ft 403 kts 259°
2026-05-03 22:42 51.85688 9.87019 37938 ft 402 kts 259°
2026-05-03 22:42 51.84968 9.78110 37942 ft 401 kts 259°
2026-05-03 22:43 51.84243 9.69188 37940 ft 402 kts 259°
2026-05-03 22:43 51.83509 9.60257 37949 ft 403 kts 259°
2026-05-03 22:44 51.82704 9.51347 37955 ft 402 kts 257°
2026-05-03 22:44 51.81686 9.42511 37951 ft 403 kts 257°
2026-05-03 22:45 51.80656 9.33639 37961 ft 402 kts 256°
2026-05-03 22:45 51.79631 9.24776 37954 ft 402 kts 256°
2026-05-03 22:46 51.78598 9.15940 37758 ft 403 kts 256°
2026-05-03 22:46 51.78085 9.11567 37382 ft 400 kts 256°
2026-05-03 22:46 51.77570 9.07196 36915 ft 397 kts 256°
2026-05-03 22:46 51.77053 9.02831 36442 ft 393 kts 256°
2026-05-03 22:47 51.76540 8.98527 36012 ft 391 kts 256°
2026-05-03 22:47 51.76023 8.94225 35482 ft 393 kts 255°
2026-05-03 22:47 51.75536 8.89903 34950 ft 395 kts 257°
2026-05-03 22:47 51.75189 8.85545 34372 ft 398 kts 260°
2026-05-03 22:48 51.74994 8.81102 33773 ft 400 kts 263°
2026-05-03 22:48 51.74960 8.76604 33208 ft 401 kts 266°
2026-05-03 22:48 51.75085 8.72175 32640 ft 402 kts 270°
2026-05-03 22:48 51.75376 8.67691 32059 ft 403 kts 273°
2026-05-03 22:49 51.75817 8.63231 31487 ft 404 kts 275°
2026-05-03 22:49 51.76299 8.58820 30916 ft 403 kts 275°
2026-05-03 22:49 51.76790 8.54369 30336 ft 402 kts 275°
2026-05-03 22:49 51.77273 8.49980 29930 ft 399 kts 275°
2026-05-03 22:50 51.77754 8.45596 29534 ft 396 kts 275°
2026-05-03 22:50 51.78229 8.41265 29129 ft 393 kts 275°
2026-05-03 22:50 51.78704 8.36915 28715 ft 389 kts 275°
2026-05-03 22:50 51.79164 8.32669 28302 ft 385 kts 275°
2026-05-03 22:51 51.79617 8.28453 27821 ft 383 kts 274°
2026-05-03 22:51 51.80079 8.24153 26895 ft 390 kts 275°
2026-05-03 22:51 51.80538 8.19878 25955 ft 397 kts 275°
2026-05-03 22:51 51.81009 8.15488 25282 ft 392 kts 275°
2026-05-03 22:52 51.81466 8.11242 24419 ft 384 kts 275°
2026-05-03 22:52 51.81908 8.07054 23318 ft 381 kts 275°
2026-05-03 22:52 51.82346 8.02870 22226 ft 376 kts 275°
2026-05-03 22:52 51.82774 7.98789 21188 ft 371 kts 276°
2026-05-03 22:53 51.83199 7.94736 20144 ft 365 kts 276°
2026-05-03 22:53 51.83615 7.90756 19135 ft 359 kts 276°
2026-05-03 22:53 51.84021 7.86875 18096 ft 356 kts 276°
2026-05-03 22:53 51.84427 7.82988 17058 ft 352 kts 277°
2026-05-03 22:54 51.84827 7.79143 16051 ft 347 kts 277°
2026-05-03 22:54 51.85218 7.75369 15060 ft 342 kts 276°
2026-05-03 22:54 51.85344 7.71572 14021 ft 335 kts 262°
2026-05-03 22:54 51.84819 7.68012 13106 ft 326 kts 247°
2026-05-03 22:55 51.83892 7.64762 12666 ft 310 kts 244°
2026-05-03 22:55 51.82962 7.61638 12289 ft 308 kts 244°
2026-05-03 22:55 51.82044 7.58568 11913 ft 306 kts 244°
2026-05-03 22:55 51.81121 7.55480 11536 ft 303 kts 244°
2026-05-03 22:56 51.80214 7.52440 11160 ft 301 kts 244°
2026-05-03 22:56 51.79314 7.49423 10794 ft 298 kts 244°
2026-05-03 22:56 51.78415 7.46412 10447 ft 296 kts 244°
2026-05-03 22:56 51.77532 7.43455 10095 ft 293 kts 244°
2026-05-03 22:57 51.76664 7.40548 9962 ft 281 kts 244°
2026-05-03 22:57 51.75844 7.37807 9943 ft 266 kts 244°
2026-05-03 22:57 51.75050 7.35155 9706 ft 262 kts 244°
2026-05-03 22:57 51.74257 7.32500 9385 ft 261 kts 244°
2026-05-03 22:58 51.73472 7.29861 9062 ft 259 kts 244°
2026-05-03 22:58 51.72702 7.27276 8754 ft 257 kts 244°
2026-05-03 22:58 51.71939 7.24723 8464 ft 255 kts 244°
2026-05-03 22:58 51.71159 7.22166 8166 ft 252 kts 240°
2026-05-03 22:59 51.70041 7.20042 7846 ft 252 kts 219°
2026-05-03 22:59 51.68516 7.18707 7552 ft 252 kts 200°
2026-05-03 22:59 51.66843 7.17905 7275 ft 250 kts 202°
2026-05-03 22:59 51.65221 7.16880 6957 ft 249 kts 205°
2026-05-03 23:00 51.63643 7.15812 6647 ft 248 kts 206°
2026-05-03 23:00 51.62040 7.14718 6333 ft 247 kts 205°
2026-05-03 23:00 51.60477 7.13646 6038 ft 246 kts 205°
2026-05-03 23:00 51.58908 7.12591 5771 ft 244 kts 205°
2026-05-03 23:01 51.57342 7.11558 5501 ft 242 kts 205°
2026-05-03 23:01 51.55791 7.10543 5227 ft 240 kts 205°
2026-05-03 23:01 51.54253 7.09553 4956 ft 239 kts 204°
2026-05-03 23:01 51.52699 7.08573 4685 ft 238 kts 204°
2026-05-03 23:02 51.51167 7.07622 4434 ft 236 kts 204°
2026-05-03 23:02 51.49636 7.06652 4210 ft 235 kts 205°
2026-05-03 23:02 51.48133 7.05609 3983 ft 240 kts 206°
2026-05-03 23:02 51.46630 7.04595 3904 ft 229 kts 205°
2026-05-03 23:03 51.45190 7.03667 3894 ft 222 kts 204°
2026-05-03 23:03 51.43742 7.02759 3917 ft 217 kts 204°
2026-05-03 23:03 51.42358 7.01900 3917 ft 213 kts 204°
2026-05-03 23:03 51.40985 7.01041 3883 ft 213 kts 209°
2026-05-03 23:04 51.39777 6.99765 3737 ft 206 kts 224°
2026-05-03 23:04 51.38793 6.98107 3384 ft 207 kts 233°
2026-05-03 23:04 51.37935 6.96220 2953 ft 212 kts 237°
2026-05-03 23:04 51.37091 6.94295 2623 ft 209 kts 235°
2026-05-03 23:05 51.36260 6.92528 2252 ft 195 kts 233°
2026-05-03 23:05 51.35430 6.90820 1941 ft 190 kts 233°
2026-05-03 23:05 51.34655 6.89225 1893 ft 175 kts 233°
2026-05-03 23:05 51.33934 6.87746 1657 ft 164 kts 234°
2026-05-03 23:06 51.33277 6.86355 1454 ft 151 kts 234°
2026-05-03 23:06 51.32665 6.85059 1249 ft 139 kts 233°
2026-05-03 23:06 51.32089 6.83848 1048 ft 135 kts 234°
2026-05-03 23:06 51.31525 6.82673 865 ft 134 kts 233°
2026-05-03 23:07 51.30964 6.81487 671 ft 134 kts 232°
2026-05-03 23:07 51.30396 6.80310 488 ft 133 kts 233°
2026-05-03 23:07 51.29839 6.79129 315 ft 133 kts 232°
2026-05-03 23:07 51.29275 6.77957 160 ft 131 kts 232°
2026-05-03 23:08 51.28813 6.76994 154 ft 85 kts 232°
2026-05-03 23:08 51.28542 6.76426 154 ft 48 kts 232°
2026-05-03 23:08 51.28365 6.76101 154 ft 31 kts 215°
2026-05-03 23:08 51.28182 6.75948 154 ft 25 kts 199°
2026-05-03 23:09 51.28085 6.75895 154 ft 8 kts 158°
2026-05-03 23:09 51.28083 6.75978 154 ft 8 kts 70°
2026-05-03 23:09 51.28064 6.76042 154 ft 7 kts 136°
2026-05-03 23:09 51.28054 6.76063 153 ft 0 kts 118°
2026-05-03 23:10 51.28072 6.76072 154 ft 0 kts 104°
2026-05-03 23:10 51.28083 6.76098 153 ft 4 kts 83°
2026-05-03 23:10 51.28102 6.76158 154 ft 6 kts 59°
2026-05-03 23:10 51.28139 6.76234 154 ft 11 kts 54°
2026-05-03 23:11 51.28193 6.76348 154 ft 13 kts 56°
2026-05-03 23:11 51.28215 6.76395 153 ft 0 kts 54°